When you browse on this site, cookies collect data to enhance your experience and personalize the content and advertising you see.
Visit our Privacy Policy to learn more. By continuing to use the site, you agree to this use of cookies and data.
  • In Slovakia
  • List of Countries
  • For 7 days
  • Water Temperature
  • Satellite Maps
  • Weather Map
  • Weather Widgets
  • user-avatar
    Login

    Hourly Weather Mazari Sharif

    Today, 20 January, Sunday

    Time Temperature Precipitation Wind Pressure Humidity
    00:00 +2°C° 0.1 mm 2 mps 650 mmHg 76%
    01:00 +2°C° 0.1 mm 2 mps 650 mmHg 77%
    02:00 +2°C° 0.2 mm 2 mps 650 mmHg 79%
    03:00 +1°C° 0.2 mm 2 mps 649 mmHg 80%
    04:00 -1°C° 0 mm 2 mps 648 mmHg 80%
    05:00 -1°C° 0.3 mm 3 mps 649 mmHg 80%
    06:00 -2°C° 0.3 mm 3 mps 649 mmHg 81%
    07:00 -4°C° 0.3 mm 4 mps 650 mmHg 81%
    08:00 -3°C° 0.1 mm 4 mps 651 mmHg 80%
    09:00 -3°C° 0.1 mm 4 mps 651 mmHg 79%
    10:00 -4°C° 0.1 mm 5 mps 652 mmHg 78%
    11:00 -4°C° 0.3 mm 5 mps 652 mmHg 79%
    12:00 -4°C° 0.3 mm 5 mps 652 mmHg 80%
    13:00 -4°C° 0.3 mm 5 mps 652 mmHg 81%
    14:00 -5°C° 0.7 mm 5 mps 653 mmHg 82%
    15:00 -4°C° 0.7 mm 4 mps 653 mmHg 82%
    16:00 -4°C° 0.7 mm 4 mps 654 mmHg 83%
    17:00 -4°C° 0.2 mm 3 mps 655 mmHg 82%
    18:00 -4°C° 0.2 mm 3 mps 656 mmHg 81%
    19:00 -4°C° 0.2 mm 3 mps 656 mmHg 81%
    20:00 -5°C° 0 mm 3 mps 657 mmHg 80%
    21:00 -4°C° 0 mm 2 mps 657 mmHg 79%
    22:00 -4°C° 0 mm 2 mps 658 mmHg 77%
    23:00 -4°C° 0 mm 2 mps 658 mmHg 76%

    Tomorrow, 21 January, Monday

    Time Temperature Precipitation Wind Pressure Humidity
    00:00 -2°C° 0 mm 1 mps 658 mmHg 75%
    01:00 -2°C° 0 mm 1 mps 659 mmHg 73%
    02:00 -2°C° 0 mm 1 mps 659 mmHg 73%
    03:00 -3°C° 0 mm 1 mps 659 mmHg 73%
    04:00 -3°C° 0 mm 1 mps 659 mmHg 72%
    05:00 -3°C° 0 mm 1 mps 659 mmHg 73%
    06:00 -3°C° 0 mm 1 mps 659 mmHg 75%
    07:00 -3°C° 0 mm 1 mps 659 mmHg 76%
    08:00 -2°C° 0 mm 1 mps 660 mmHg 72%
    09:00 -1°C° 0 mm 1 mps 660 mmHg 68%
    10:00 -2°C° 0 mm 2 mps 660 mmHg 64%
    11:00 -1°C° 0 mm 2 mps 659 mmHg 63%
    12:00 -1°C° 0 mm 2 mps 658 mmHg 62%
    13:00 +1°C° 0 mm 2 mps 658 mmHg 61%
    14:00 +1°C° 0 mm 2 mps 657 mmHg 62%
    15:00 -1°C° 0 mm 2 mps 657 mmHg 63%
    16:00 -1°C° 0 mm 2 mps 657 mmHg 64%
    17:00 0°C° 0 mm 1 mps 657 mmHg 68%
    18:00 0°C° 0 mm 1 mps 657 mmHg 72%
    19:00 -2°C° 0 mm 0 mps 657 mmHg 76%
    20:00 -2°C° 0 mm 0 mps 656 mmHg 76%
    21:00 -2°C° 0 mm 0 mps 656 mmHg 77%
    22:00 -3°C° 0 mm 0 mps 656 mmHg 78%
    23:00 -3°C° 0 mm 0 mps 655 mmHg 78%

    Day after tomorrow, 22 January, Tuesday

    Time Temperature Precipitation Wind Pressure Humidity
    00:00 -2°C° 0 mm 1 mps 655 mmHg 79%
    01:00 -2°C° 0 mm 1 mps 655 mmHg 79%
    02:00 -2°C° 0 mm 1 mps 654 mmHg 79%
    03:00 -2°C° 0 mm 1 mps 654 mmHg 80%
    04:00 -3°C° 0 mm 1 mps 654 mmHg 80%
    05:00 -3°C° 0 mm 1 mps 654 mmHg 79%
    06:00 -3°C° 0 mm 1 mps 654 mmHg 79%
    07:00 -3°C° 0 mm 1 mps 654 mmHg 78%
    08:00 -2°C° 0 mm 1 mps 654 mmHg 71%
    09:00 -1°C° 0 mm 0 mps 654 mmHg 65%
    10:00 0°C° 0 mm 0 mps 654 mmHg 58%
    11:00 +2°C° 0 mm 1 mps 653 mmHg 57%
    12:00 +2°C° 0 mm 1 mps 653 mmHg 56%
    13:00 +3°C° 0 mm 1 mps 652 mmHg 54%
    14:00 +2°C° 0 mm 1 mps 652 mmHg 55%
    15:00 +2°C° 0 mm 1 mps 652 mmHg 56%
    16:00 +2°C° 0 mm 1 mps 652 mmHg 58%
    17:00 +1°C° 0 mm 1 mps 653 mmHg 60%
    18:00 0°C° 0 mm 1 mps 653 mmHg 62%
    19:00 0°C° 0 mm 1 mps 654 mmHg 65%
    20:00 -1°C° 0 mm 1 mps 654 mmHg 63%
    21:00 -1°C° 0 mm 1 mps 654 mmHg 61%
    22:00 -1°C° 0 mm 1 mps 654 mmHg 58%
    23:00 -1°C° 0 mm 1 mps 654 mmHg 56%

    23 January, Wednesday

    Time Temperature Precipitation Wind Pressure Humidity
    00:00 -1°C° 0 mm 1 mps 654 mmHg 53%
    01:00 -1°C° 0 mm 1 mps 654 mmHg 51%
    02:00 -1°C° 0 mm 1 mps 654 mmHg 49%
    03:00 -1°C° 0 mm 1 mps 654 mmHg 46%
    04:00 -1°C° 0 mm 1 mps 654 mmHg 44%
    05:00 -1°C° 0 mm 1 mps 655 mmHg 42%
    06:00 -1°C° 0 mm 1 mps 655 mmHg 40%
    07:00 -1°C° 0 mm 1 mps 655 mmHg 38%
    08:00 +1°C° 0 mm 1 mps 656 mmHg 34%
    09:00 +2°C° 0 mm 1 mps 656 mmHg 31%
    10:00 +4°C° 0 mm 1 mps 657 mmHg 27%
    11:00 +4°C° 0 mm 1 mps 656 mmHg 29%
    12:00 +5°C° 0 mm 1 mps 656 mmHg 30%
    13:00 +5°C° 0 mm 1 mps 656 mmHg 32%
    14:00 +5°C° 0 mm 1 mps 656 mmHg 35%
    15:00 +4°C° 0 mm 1 mps 656 mmHg 39%
    16:00 +4°C° 0 mm 1 mps 656 mmHg 43%
    17:00 +3°C° 0 mm 1 mps 656 mmHg 45%
    18:00 +2°C° 0 mm 1 mps 656 mmHg 46%
    19:00 0°C° 0 mm 0 mps 657 mmHg 48%
    20:00 +1°C° 0 mm 1 mps 657 mmHg 47%
    21:00 +1°C° 0 mm 1 mps 657 mmHg 45%
    22:00 +1°C° 0 mm 1 mps 657 mmHg 43%
    23:00 0°C° 0 mm 1 mps 657 mmHg 43%

    24 January, Thursday

    Time Temperature Precipitation Wind Pressure Humidity
    00:00 0°C° 0 mm 1 mps 658 mmHg 43%
    01:00 0°C° 0 mm 1 mps 658 mmHg 42%
    02:00 0°C° 0 mm 1 mps 658 mmHg 43%
    03:00 0°C° 0 mm 1 mps 658 mmHg 43%
    04:00 -1°C° 0 mm 1 mps 658 mmHg 44%
    05:00 -1°C° 0 mm 1 mps 658 mmHg 44%
    06:00 -1°C° 0 mm 1 mps 659 mmHg 44%
    07:00 -1°C° 0 mm 1 mps 659 mmHg 44%
    08:00 +1°C° 0 mm 1 mps 659 mmHg 40%
    09:00 +2°C° 0 mm 1 mps 660 mmHg 36%
    10:00 +3°C° 0 mm 0 mps 660 mmHg 32%
    11:00 +4°C° 0 mm 1 mps 660 mmHg 33%
    12:00 +5°C° 0 mm 1 mps 659 mmHg 33%
    13:00 +5°C° 0 mm 1 mps 659 mmHg 33%
    14:00 +5°C° 0 mm 1 mps 659 mmHg 36%
    15:00 +4°C° 0 mm 1 mps 658 mmHg 38%
    16:00 +3°C° 0 mm 2 mps 658 mmHg 40%
    17:00 +3°C° 0 mm 1 mps 659 mmHg 43%
    18:00 +2°C° 0 mm 1 mps 659 mmHg 45%
    19:00 +1°C° 0 mm 1 mps 659 mmHg 47%
    20:00 +1°C° 0 mm 1 mps 659 mmHg 47%
    21:00 +1°C° 0 mm 1 mps 659 mmHg 46%
    22:00 0°C° 0 mm 1 mps 659 mmHg 45%
    23:00 0°C° 0 mm 1 mps 659 mmHg 44%

    25 January, Friday

    Time Temperature Precipitation Wind Pressure Humidity
    00:00 0°C° 0 mm 1 mps 658 mmHg 44%
    01:00 0°C° 0 mm 1 mps 658 mmHg 43%
    02:00 0°C° 0 mm 1 mps 658 mmHg 43%
    03:00 0°C° 0 mm 1 mps 658 mmHg 42%
    04:00 -1°C° 0 mm 1 mps 657 mmHg 42%
    05:00 -1°C° 0 mm 1 mps 658 mmHg 41%
    06:00 -1°C° 0 mm 1 mps 658 mmHg 41%
    07:00 -1°C° 0 mm 1 mps 658 mmHg 40%
    08:00 +1°C° 0 mm 1 mps 658 mmHg 37%
    09:00 +1°C° 0 mm 0 mps 658 mmHg 33%
    10:00 +3°C° 0 mm 0 mps 659 mmHg 29%
    11:00 +5°C° 0 mm 1 mps 658 mmHg 29%
    12:00 +5°C° 0 mm 1 mps 658 mmHg 29%
    13:00 +5°C° 0 mm 1 mps 657 mmHg 29%
    14:00 +5°C° 0 mm 1 mps 657 mmHg 31%
    15:00 +4°C° 0 mm 1 mps 657 mmHg 33%
    16:00 +4°C° 0 mm 1 mps 657 mmHg 35%
    17:00 +3°C° 0 mm 1 mps 657 mmHg 36%
    18:00 +2°C° 0 mm 1 mps 657 mmHg 37%
    19:00 +1°C° 0 mm 1 mps 657 mmHg 38%
    20:00 +1°C° 0 mm 1 mps 657 mmHg 38%
    21:00 +1°C° 0 mm 1 mps 657 mmHg 37%
    22:00 +1°C° 0 mm 1 mps 657 mmHg 37%
    23:00 0°C° 0 mm 1 mps 657 mmHg 37%
    Show more